User: anonymous   Login
Location: Pine Mountain Observatory
(43.7910°N, 120.9377°W)
Time: 08:33:40
(UTC-08:00)
Language:

APEX - Orbit

View from above orbital plane
View from above orbital plane
View from above satellite
View from above satellite

Ground track
Ground track

The orbit data is extracted from the following two-line orbital elements,

1 23191U 94046A   17350.50682547  .00003897  00000-0  12965-3 0  9995
2 23191  69.9194 156.4346 0591764 351.7002   7.4650 14.41093972142790
Epoch (UTC): 16 December 2017 12:09:49
Eccentricity: 0.0591764
inclination: 69.9194°
perigee height: 333 km
apogee height: 1177 km
right ascension of ascending node: 156.4346°
argument of perigee: 351.7002°
revolutions per day: 14.41093972
mean anomaly at epoch: 7.4650°
orbit number at epoch: 14279

The dashed part of the orbit path shows where the satellite is in the earth's shadow,  

DLR